Observations for Trim Market St
| Time | AQI | Temp °C | Hum % | Pres Pa | CO μg/m³ | H₂S μg/m³ | NO μg/m³ | NO₂ μg/m³ | O₃ μg/m³ | SO₂ μg/m³ | PM1 μg/m³ | PM2.5 μg/m³ | PM10 μg/m³ |
|---|---|---|---|---|---|---|---|---|---|---|---|---|---|
| Friday 21 August 2026 | |||||||||||||
| 08:28 | 2 | 24.1 | 47 | 65,250 | 0.61 | 0 | 1.83 | 9.86 | 38.71 | 0 | 0.71 | 3.63 | 3.7 |
| 08:27 | 2 | 24 | 48 | 65,174 | 0.56 | 0 | 1.84 | 7.25 | 40.17 | 0 | 0.71 | 3.59 | 3.73 |
| 08:25 | 2 | 23.7 | 49 | 64,991 | 0.61 | 0 | 1.76 | 9.29 | 46.76 | 0 | 0.71 | 4.06 | 5.27 |
| 08:21 | 2 | 23.3 | 49 | 64,811 | 0.53 | 0 | 1.78 | 6.73 | 54.87 | 0 | 0 | 2.99 | 3.03 |
| 08:18 | 2 | 22.9 | 51 | 64,358 | 0.59 | 0 | 1.86 | 8.56 | 45.98 | 0 | 0 | 1.91 | 3.08 |
| 08:16 | 2 | 22.5 | 52 | 63,884 | 0.6 | 0 | 1.87 | 9.24 | 41.35 | 0 | 0.71 | 3.41 | 3.85 |
| 08:15 | 2 | 22.4 | 52 | 63,661 | 0.63 | 0 | 1.88 | 7.78 | 34.26 | 0 | 0 | 2.87 | 4.6 |
| 08:07 | 2 | 21.1 | 56 | 59,494 | 0.78 | 0 | 2.41 | 8.91 | 31.13 | 0 | 0 | 2.2 | 2.56 |
| 08:06 | 2 | 21 | 57 | 58,410 | 0.96 | 0 | 2.49 | 12.02 | 22.21 | 0 | 0.71 | 2.68 | 3.29 |
| 08:05 | 2 | 20.8 | 57 | 57,342 | 0.75 | 0 | 2.61 | 9.51 | 32.94 | 0 | 0 | 2.65 | 3.31 |
| 08:04 | 2 | 20.6 | 58 | 56,544 | 0.75 | 0 | 2.7 | 11.44 | 30.09 | 0 | 0 | 2.63 | 3.33 |
| 08:03 | 2 | 20.4 | 58 | 56,376 | 0.78 | 0 | 2.82 | 8.23 | 34.71 | 0 | 0 | 1.6 | 1.95 |
| 08:02 | 2 | 20.2 | 59 | 56,205 | 0.77 | 0 | 3.1 | 7.63 | 28.83 | 0 | 0 | 2.58 | 4.06 |
| 08:01 | 2 | 20.1 | 59 | 56,330 | 0.78 | 0 | 7 | 11.26 | 30 | 0 | 0 | 1.55 | 2.7 |
| 08:00 | 2 | 19.9 | 60 | 56,496 | 0.85 | 0 | 9.37 | 12.7 | 24.77 | 0 | 0.71 | 4.53 | 6.16 |
| 07:59 | 2 | 19.7 | 60 | 56,747 | 1 | 0 | 12.24 | 44.09 | 27.45 | 0 | 0.71 | 2.5 | 3.43 |
| 07:58 | 2 | 19.5 | 61 | 56,912 | 1.01 | 0 | 12.18 | 41.69 | 23.6 | 0 | 0.71 | 3.48 | 4.81 |
| 07:57 | 2 | 19.3 | 61 | 57,135 | 1 | 0 | 10.91 | 20.05 | 23.7 | 0 | 0 | 2.46 | 3.46 |
| 07:56 | 2 | 19.1 | 62 | 57,314 | 1.03 | 0 | 5.75 | 37.62 | 27.69 | 0 | 0 | 2.44 | 3.48 |
| 07:55 | 2 | 18.9 | 62 | 57,416 | 1.02 | 0 | 6.33 | 16.49 | 24.02 | 0 | 0.71 | 2.92 | 4.17 |